ELY5183 LLBG-LATI

Flight info

Callsign ELY5183
Flight time N/A
Altitude 38000
Route SUVAS L53 ANIDE DCT UVRIT DCT KUGGI DCT DIMIS DCT ADDER DCT ELBAK
Aircraft B738/M-SDE2E3FGHIRWXY/LB1

Departure

Time 2026-05-06 12:15
Airport Ben Gurion International Airport (LLBG)

Arrival

Time N/A
Airport Tirana International Airport Mother Teresa (LATI)
Time Latitude Longitude Altitude Speed Heading
2026-05-06 11:54 32.00322 34.87626 119 ft 0 kts 316°
2026-05-06 12:06 32.00311 34.87639 114 ft 4 kts 318°
2026-05-06 12:06 32.00291 34.87660 117 ft 4 kts 314°
2026-05-06 12:06 32.00277 34.87680 116 ft 4 kts 281°
2026-05-06 12:07 32.00284 34.87702 116 ft 4 kts 217°
2026-05-06 12:07 32.00307 34.87719 119 ft 4 kts 209°
2026-05-06 12:07 32.00312 34.87722 114 ft 0 kts 210°
2026-05-06 12:09 32.00292 34.87708 116 ft 0 kts 211°
2026-05-06 12:09 32.00279 34.87699 115 ft 6 kts 211°
2026-05-06 12:10 32.00233 34.87668 115 ft 7 kts 201°
2026-05-06 12:10 32.00188 34.87694 119 ft 10 kts 109°
2026-05-06 12:10 32.00243 34.87771 119 ft 17 kts 32°
2026-05-06 12:10 32.00364 34.87858 116 ft 23 kts 31°
2026-05-06 12:11 32.00473 34.87936 117 ft 15 kts 31°
2026-05-06 12:11 32.00549 34.87937 117 ft 10 kts 326°
2026-05-06 12:11 32.00612 34.87937 119 ft 10 kts 30°
2026-05-06 12:11 32.00676 34.87981 117 ft 12 kts 31°
2026-05-06 12:12 32.00762 34.88044 118 ft 17 kts 32°
2026-05-06 12:12 32.00877 34.88127 119 ft 22 kts 31°
2026-05-06 12:12 32.01017 34.88229 117 ft 26 kts 31°
2026-05-06 12:12 32.01175 34.88343 120 ft 26 kts 31°
2026-05-06 12:13 32.01317 34.88466 117 ft 25 kts 44°
2026-05-06 12:13 32.01419 34.88616 119 ft 23 kts 57°
2026-05-06 12:13 32.01484 34.88785 118 ft 22 kts 74°
2026-05-06 12:13 32.01515 34.88963 117 ft 22 kts 79°
2026-05-06 12:14 32.01541 34.89122 119 ft 16 kts 72°
2026-05-06 12:14 32.01624 34.89155 116 ft 14 kts 349°
2026-05-06 12:14 32.01718 34.89136 116 ft 13 kts 349°
2026-05-06 12:14 32.01747 34.89093 115 ft 6 kts 262°
2026-05-06 12:15 32.01722 34.88936 120 ft 50 kts 260°
2026-05-06 12:15 32.01618 34.88255 116 ft 116 kts 259°
2026-05-06 12:15 32.01434 34.87089 139 ft 169 kts 260°
2026-05-06 12:15 32.01212 34.85685 792 ft 173 kts 260°
2026-05-06 12:16 32.00964 34.84360 1912 ft 161 kts 260°
2026-05-06 12:16 32.00700 34.83044 2656 ft 166 kts 259°
2026-05-06 12:16 32.00430 34.81729 3391 ft 169 kts 258°
2026-05-06 12:16 32.00128 34.80274 3726 ft 197 kts 257°
2026-05-06 12:17 31.99778 34.78605 3937 ft 222 kts 256°
2026-05-06 12:17 31.99393 34.76774 4361 ft 236 kts 256°
2026-05-06 12:17 31.99229 34.74771 4728 ft 258 kts 279°
2026-05-06 12:17 31.99744 34.72737 5389 ft 267 kts 289°
2026-05-06 12:18 32.00408 34.70680 6237 ft 269 kts 290°
2026-05-06 12:18 32.01074 34.68606 7056 ft 270 kts 288°
2026-05-06 12:18 32.01619 34.66486 7920 ft 269 kts 284°
2026-05-06 12:18 32.02104 34.64348 8725 ft 271 kts 284°